User: anonymous   Login
Location: Natural Bridges National Monument
(37.6093°N, 109.9767°W)
Time: 17:22:50
(UTC-07:00)
Language:

USA 32 - Orbit

View from above orbital plane
View from above orbital plane
View from above satellite
View from above satellite

Ground track
Ground track

The orbit data is extracted from the following two-line orbital elements,

1 19460U 88078A   15018.72521500 0.00000180  00000-0  65523-4 0    05
2 19460  84.9866  13.0524 0004998  39.2122 320.7877 14.33262995    05
Epoch (UTC): 18 January 2015 17:24:18
Eccentricity: 0.0004998
inclination: 84.9866°
perigee height: 777 km
apogee height: 784 km
right ascension of ascending node: 13.0524°
argument of perigee: 39.2122°
revolutions per day: 14.33262995
mean anomaly at epoch: 320.7877°
orbit number at epoch: 0

The dashed part of the orbit path shows where the satellite is in the earth's shadow,  

DLR